| time (UTC) | temp C | wind direction | speed KPH | gust KPH | rain 1hr cm | rain 24hr cm | rain mn cm | humidity % | barometer mb |
| 20260505041533 | 15 | 215 | 6.4 | 17.7 | 0.00 | 0.18 | 0.00 | 75 | 998.0 |
| 20260505040003 | 16 | 205 | 3.2 | 14.5 | 0.00 | 0.18 | 0.18 | 70 | 997.4 |
| 20260505034534 | 17 | 117 | 4.8 | 19.3 | 0.00 | 0.18 | 0.18 | 70 | 997.3 |
| 20260505033005 | 16 | 227 | 8.0 | 27.4 | 0.00 | 0.18 | 0.18 | 75 | 997.3 |
| 20260505031541 | 16 | 181 | 8.0 | 20.9 | 0.00 | 0.18 | 0.18 | 77 | 997.7 |
| 20260505030007 | 16 | 159 | 6.4 | 32.2 | 0.00 | 0.18 | 0.18 | 80 | 997.5 |
| 20260505024539 | 15 | 167 | 8.0 | 19.3 | 0.00 | 0.18 | 0.18 | 82 | 997.6 |
| 20260505023013 | 15 | 191 | 3.2 | 14.5 | 0.00 | 0.18 | 0.18 | 81 | 997.4 |
| 20260505021544 | 15 | 163 | 8.0 | 17.7 | 0.00 | 0.18 | 0.18 | 81 | 996.9 |
| 20260505020010 | 15 | 161 | 6.4 | 16.1 | 0.08 | 0.18 | 0.18 | 82 | 997.2 |
| 20260505014549 | 14 | 205 | 4.8 | 19.3 | 0.15 | 0.18 | 0.18 | 85 | 997.5 |
| 20260505013012 | 14 | 148 | 3.2 | 14.5 | 0.18 | 0.18 | 0.18 | 85 | 997.3 |
| 20260505011547 | 14 | 222 | 6.4 | 16.1 | 0.18 | 0.18 | 0.18 | 85 | 997.9 |
| 20260505010025 | 14 | 169 | 1.6 | 16.1 | 0.10 | 0.10 | 0.10 | 82 | 997.2 |
| 20260505004547 | 15 | 126 | 4.8 | 12.9 | 0.03 | 0.03 | 0.03 | 76 | 998.0 |
| 20260505003017 | 18 | 167 | 19.3 | 32.2 | 0.00 | 0.00 | 0.00 | 66 | 997.4 |
| 20260505001548 | 18 | 147 | 3.2 | 8.0 | 0.00 | 0.00 | 0.00 | 76 | 996.3 |
| 20260505000019 | 18 | 173 | 3.2 | 11.3 | 0.00 | 0.00 | 0.00 | 75 | 996.3 |
| 20260504234543 | 18 | 194 | 6.4 | 22.5 | 0.00 | 0.00 | 0.00 | 72 | 996.5 |
| 20260504233013 | 18 | 236 | 8.0 | 30.6 | 0.00 | 0.00 | 0.00 | 76 | 996.9 |
| 20260504231547 | 19 | 218 | 6.4 | 20.9 | 0.00 | 0.00 | 0.00 | 72 | 996.6 |
| 20260504230015 | 18 | 228 | 1.6 | 16.1 | 0.00 | 0.00 | 0.00 | 74 | 996.5 |
| 20260504224547 | 19 | 179 | 9.7 | 22.5 | 0.00 | 0.00 | 0.00 | 63 | 997.2 |
| 20260504223016 | 21 | 211 | 6.4 | 24.1 | 0.00 | 0.00 | 0.00 | 49 | 996.9 |
| 20260504221601 | 22 | 220 | 6.4 | 17.7 | 0.00 | 0.00 | 0.00 | 43 | 996.7 |
| 20260504220018 | 23 | 200 | 4.8 | 12.9 | 0.00 | 0.00 | 0.00 | 42 | 996.7 |
| 20260504214600 | 24 | 200 | 3.2 | 16.1 | 0.00 | 0.00 | 0.00 | 41 | 996.8 |
| 20260504213020 | 24 | 153 | 6.4 | 11.3 | 0.00 | 0.00 | 0.00 | 38 | 996.9 |
| 20260504211552 | 24 | 225 | 6.4 | 12.9 | 0.00 | 0.00 | 0.00 | 38 | 997.0 |
| 20260504210023 | 23 | 255 | 6.4 | 12.9 | 0.00 | 0.00 | 0.00 | 41 | 997.4 |
| 20260504204559 | 22 | 238 | 4.8 | 12.9 | 0.00 | 0.00 | 0.00 | 44 | 997.6 |
| 20260504203028 | 22 | 159 | 6.4 | 16.1 | 0.00 | 0.00 | 0.00 | 48 | 997.8 |
| 20260504201557 | 22 | 186 | 6.4 | 16.1 | 0.00 | 0.00 | 0.00 | 49 | 998.1 |
| 20260504200026 | 22 | 216 | 9.7 | 16.1 | 0.00 | 0.00 | 0.00 | 51 | 998.2 |
| 20260504194600 | 23 | 141 | 3.2 | 19.3 | 0.00 | 0.00 | 0.00 | 51 | 998.2 |
| 20260504193029 | 23 | 200 | 4.8 | 14.5 | 0.00 | 0.00 | 0.00 | 50 | 998.3 |
| 20260504191604 | 23 | 186 | 4.8 | 14.5 | 0.00 | 0.00 | 0.00 | 50 | 998.3 |
| 20260504190031 | 22 | 221 | 8.0 | 16.1 | 0.00 | 0.00 | 0.00 | 50 | 998.7 |
| 20260504184602 | 22 | 196 | 6.4 | 14.5 | 0.00 | 0.00 | 0.00 | 50 | 999.1 |
| 20260504183032 | 21 | 159 | 4.8 | 20.9 | 0.00 | 0.00 | 0.00 | 51 | 999.2 |
| 20260504181505 | 21 | 234 | 6.4 | 17.7 | 0.00 | 0.00 | 0.00 | 53 | 999.4 |
| 20260504180042 | 21 | 242 | 6.4 | 17.7 | 0.00 | 0.00 | 0.00 | 53 | 999.4 |
| 20260504174505 | 21 | 221 | 4.8 | 16.1 | 0.00 | 0.00 | 0.00 | 52 | 999.5 |
| 20260504173037 | 21 | 256 | 8.0 | 19.3 | 0.00 | 0.00 | 0.00 | 50 | 999.6 |
| 20260504171507 | 20 | 199 | 11.3 | 22.5 | 0.00 | 0.00 | 0.00 | 49 | 999.9 |
| 20260504100113 | 10 | 173 | 1.6 | 17.7 | 0.00 | 0.00 | 0.00 | 82 | 1002.2 |
| 20260504081535 | 11 | 173 | 3.2 | 14.5 | 0.00 | 0.00 | 0.00 | 78 | 1002.4 |
| 20260504060111 | 12 | 136 | 3.2 | 16.1 | 0.00 | 0.00 | 0.00 | 75 | 1003.9 |
| 20260504044558 | 12 | 125 | 6.4 | 24.1 | 0.00 | 0.00 | 0.00 | 72 | 1004.6 |
| 20260504043028 | 12 | 168 | 8.0 | 20.9 | 0.00 | 0.00 | 0.00 | 72 | 1004.6 |